Hourly Data Report for October 09, 2013

All times are specified in Local Standard Time (LST). Add 1 hour to adjust for Daylight Saving Time where and when it is observed.

IQALUIT CLIMATE
NUNAVUT

63°44'50.000" N
68°32'40.000" W
33.50 m
2402592
71321
XFB

Download Data

Hourly Data (October 2013)
Hourly Data Report for October 9, 2013
Temp Definition
°C
Dew Point Temp Definition
°C
Rel Hum Definition
%
Wind Dir Definition
10's deg

Wind Spd Definition
km/h
Visibility Definition
km
Stn Press Definition
kPa
Hmdx Definition


Wind Chill Definition


Weather Definition


TIME
00:00 0.4 -0.5 94 4 30   98.07     LegendNANA
01:00 0.6 -0.8 90 3 30   98.18     LegendNANA
02:00 0.3 -1.0 91 33 26   98.34     LegendNANA
03:00 0.0 -1.0 93 33 30   98.43   -6 LegendNANA
04:00 -0.6 -0.6 100 33 37   98.53   -8 LegendNANA
05:00 -0.5 -0.7 99 33 33   98.64   -7 LegendNANA
06:00 -0.5 -0.9 97 32 32   98.72   -7 LegendNANA
07:00 -1.3 -1.9 96 32 37   98.78   -9 LegendNANA
08:00 -0.8 -1.4 96 32 33   98.83   -8 LegendNANA
09:00 -0.9 -1.4 96 33 33   98.86   -8 LegendNANA
10:00 -0.7 -1.3 96 33 33   98.91   -8 LegendNANA
11:00 -0.5 -0.6 99 33 32   98.95   -7 LegendNANA
12:00 -0.4 -0.4 100 33 30   99.00   -7 LegendNANA
13:00 0.2 0.2 100 33 30   99.08     LegendNANA
14:00 0.8 0.8 100 32 22   99.15     LegendNANA
15:00 1.6 0.5 92 33 13   99.25     LegendNANA
16:00 1.8 -0.6 84 5 24   99.37     LegendNANA
17:00 1.7 -0.8 83 5 20   99.53     LegendNANA
18:00 1.6 -1.2 82 5 24   99.67     LegendNANA
19:00 1.4 -1.9 79 4 28   99.83     LegendNANA
20:00 1.1 -2.3 78 2 17   99.96     LegendNANA
21:00 0.5 -2.3 81 33 19   100.09     LegendNANA
22:00 -0.1 -2.8 82 32 15   100.21   -5 LegendNANA
23:00 -0.3 -2.6 84 32 19   100.35   -5 LegendNANA

Notes on Data Quality.

Legend

  • E = Estimated
  • M = Missing
  • NA = Not Available
  • ‡ = Partner data that is not subject to review by the National Climate Archives
Date modified: